Location: Poughquag
(41.6090°N, 73.6820°W)
Time: 14:50:11
(UTC-04:00)

Vanguard 3 - Pass Details

Date: 07 June 2020
Orbit: 510 x 3261 km, 33.3° (Epoch: 05 July)

Event Time Altitude Azimuth Distance (km) Brightness Sun altitude
Exits shadow 02:31:51 13° 240° (WSW) 5,905 11.0 -21.7°
Maximum altitude 02:49:30 59° 169° (S) 3,149 9.8 -20.2°
Drops below altitude 10° 03:02:58 10° 95° (E) 4,543 11.3 -19.0°
Sets 03:05:56 0° 91° (E) 5,231 11.7 -18.7°
